Rush City, MN

6:41 PM CST on February 23, 2017 (GMT -0600)
Rush City Regional

Weather History for KROS - June, 2013

Change the Weather History Date:

Wednesday, June 19, 2013

  Actual Average (KCBG) Record (KCBG)
Temperature  
Mean Temperature 64 °F -  
Max Temperature 80 °F 75 °F 96 °F (1986)
Min Temperature 49 °F 53 °F 40 °F (1980)
Growing Degree Days 14 (Base 50)    
Moisture  
Dew Point 56 °F    
Average Humidity 68    
Maximum Humidity 95    
Minimum Humidity 45    
Precipitation  
Precipitation 0.00 in - - ()
Sea Level Pressure  
Sea Level Pressure 30.03 in    
Wind  
Wind Speed 4 mph (SSE)    
Max Wind Speed 12 mph    
Max Gust Speed 17 mph    
Visibility 10 miles    
Events      
Averages and records for this station are not official NWS values.
T = Trace of Precipitation, MM = Missing Value Source: NWS Daily Summary

Daily Weather History Graph

Daily Weather History Graph

Search for Another Location

Airport or City:

Trip Planner

Search our weather history database for the weather conditions in past years. The results will help you decide how hot, cold, wet, or windy it might be!

Date:

Astronomy

Jun. 19, 2013 Rise Set
Actual Time 5:21 AM CDT 9:04 PM CDT
Civil Twilight 4:43 AM CDT 9:42 PM CDT
Nautical Twilight 3:52 AM CDT 10:34 PM CDT
Astronomical Twilight 2:41 AM CDT 11:44 PM CDT
Moon 4:49 PM CDT (6/19) 2:17 AM CDT (6/19)
Length of Visible Light 16h 59m
Length of Day
15h 42m
Waxing Gibbous, 80% of the Moon is Illuminated
Jun 19
Waxing Gibbous
Jun 23
Full
Jun 29
Last Quarter
Jul 8
New
Jul 15
First Quarter

Hourly Weather History & Observations

Time (CDT) Temp. Heat Index Dew Point Humidity Pressure Visibility Wind Dir Wind Speed Gust Speed Precip Events Conditions
12:15 AM 54.7 °F - 51.3 °F 88% 30.06 in 10.0 mi Calm Calm - N/A   Mostly Cloudy
12:36 AM 53.8 °F - 50.9 °F 90% 30.06 in 10.0 mi SE 3.5 mph - N/A   Mostly Cloudy
12:55 AM 53.8 °F - 51.3 °F 91% 30.06 in 10.0 mi Calm Calm - N/A   Mostly Cloudy
1:15 AM 53.2 °F - 50.9 °F 92% 30.06 in 10.0 mi ESE 3.5 mph - N/A   Mostly Cloudy
1:36 AM 55.2 °F - 50.9 °F 85% 30.06 in 10.0 mi Calm Calm - N/A   Mostly Cloudy
1:55 AM 52.9 °F - 50.4 °F 91% 30.06 in 10.0 mi Calm Calm - N/A   Mostly Cloudy
2:15 AM 52.2 °F - 50.0 °F 92% 30.06 in 10.0 mi Calm Calm - N/A   Mostly Cloudy
2:36 AM 51.1 °F - 49.1 °F 93% 30.05 in 10.0 mi Calm Calm - N/A   Mostly Cloudy
2:55 AM 51.6 °F - 50.0 °F 94% 30.05 in 10.0 mi Calm Calm - N/A   Mostly Cloudy
3:15 AM 50.4 °F - 48.6 °F 94% 30.05 in 10.0 mi Calm Calm - N/A   Mostly Cloudy
3:36 AM 49.6 °F - 48.2 °F 95% 30.04 in 10.0 mi Calm Calm - N/A   Mostly Cloudy
3:55 AM 49.5 °F - 48.0 °F 95% 30.04 in 10.0 mi Calm Calm - N/A   Mostly Cloudy
4:15 AM 50.2 °F - 48.7 °F 95% 30.05 in 10.0 mi Calm Calm - N/A   Mostly Cloudy
4:35 AM 50.5 °F - 49.3 °F 95% 30.05 in 10.0 mi Calm Calm - N/A   Mostly Cloudy
4:55 AM 50.2 °F - 48.7 °F 95% 30.05 in 10.0 mi Calm Calm - N/A   Mostly Cloudy
5:16 AM 50.4 °F - 48.9 °F 95% 30.06 in 10.0 mi Calm Calm - N/A   Mostly Cloudy
5:35 AM 50.9 °F - 49.1 °F 94% 30.06 in 10.0 mi Calm Calm - N/A   Scattered Clouds
5:55 AM 50.5 °F - 48.7 °F 94% 30.06 in 10.0 mi SE 3.5 mph - N/A   Clear
6:16 AM 52.0 °F - 50.0 °F 93% 30.07 in 10.0 mi SE 3.5 mph - N/A   Scattered Clouds
6:35 AM 54.7 °F - 51.1 °F 88% 30.07 in 10.0 mi ESE 3.5 mph - N/A   Scattered Clouds
6:55 AM 56.3 °F - 51.6 °F 84% 30.08 in 10.0 mi SSE 4.6 mph - N/A   Clear
7:16 AM 59.0 °F - 53.4 °F 82% 30.08 in 10.0 mi SSE 3.5 mph - N/A   Clear
7:36 AM 60.1 °F - 53.6 °F 79% 30.08 in 10.0 mi SSE 6.9 mph - N/A   Clear
7:55 AM 61.2 °F - 54.5 °F 79% 30.07 in 10.0 mi SSE 6.9 mph - N/A   Clear
8:16 AM 63.1 °F - 55.4 °F 76% 30.07 in 10.0 mi SSE 8.1 mph - N/A   Clear
8:36 AM 65.3 °F - 56.1 °F 72% 30.06 in 10.0 mi SSE 8.1 mph - N/A   Clear
8:55 AM 66.9 °F - 56.5 °F 69% 30.06 in 10.0 mi SSE 5.8 mph - N/A   Clear
9:16 AM 68.2 °F - 56.7 °F 67% 30.07 in 10.0 mi SSE 8.1 mph - N/A   Clear
9:35 AM 69.3 °F - 57.0 °F 65% 30.07 in 10.0 mi South 5.8 mph - N/A   Clear
9:56 AM 70.3 °F - 57.6 °F 64% 30.07 in 10.0 mi SSE 8.1 mph - N/A   Clear
10:15 AM 70.9 °F - 57.9 °F 63% 30.06 in 10.0 mi SE 6.9 mph - N/A   Clear
10:36 AM 71.8 °F - 58.1 °F 62% 30.06 in 10.0 mi SSE 9.2 mph - N/A   Clear
10:56 AM 73.0 °F - 58.5 °F 60% 30.06 in 10.0 mi South 6.9 mph - N/A   Clear
11:15 AM 73.9 °F - 59.0 °F 59% 30.05 in 10.0 mi SSW 6.9 mph - N/A   Clear
11:36 AM 74.5 °F - 59.2 °F 59% 30.05 in 10.0 mi South 6.9 mph - N/A   Clear
11:55 AM 75.2 °F - 58.8 °F 57% 30.05 in 10.0 mi SE 6.9 mph - N/A   Clear
12:16 PM 76.1 °F - 58.5 °F 54% 30.04 in 10.0 mi South 5.8 mph - N/A   Clear
12:35 PM 76.6 °F - 58.8 °F 54% 30.03 in 10.0 mi SSE 9.2 mph - N/A   Clear
12:55 PM 77.5 °F - 59.0 °F 53% 30.03 in 10.0 mi SSE 5.8 mph - N/A   Clear
1:16 PM 77.7 °F - 59.0 °F 52% 30.02 in 10.0 mi South 5.8 mph - N/A   Clear
1:35 PM 78.3 °F - 56.7 °F 47% 30.02 in 10.0 mi SSE 6.9 mph - N/A   Clear
1:55 PM 79.0 °F - 56.3 °F 46% 30.02 in 10.0 mi SSE 11.5 mph - N/A   Clear
2:15 PM 79.3 °F - 57.2 °F 47% 30.01 in 10.0 mi SSW 8.1 mph - N/A   Clear
2:35 PM 79.2 °F - 57.6 °F 47% 30.01 in 10.0 mi SSW 8.1 mph - N/A   Clear
2:56 PM 79.7 °F - 57.4 °F 46% 30.01 in 10.0 mi SSE 5.8 mph 17.3 mph N/A   Scattered Clouds
3:15 PM 79.7 °F - 57.2 °F 46% 30.00 in 10.0 mi South 8.1 mph - N/A   Scattered Clouds
3:35 PM 80.4 °F 80.7 °F 57.2 °F 45% 30.00 in 10.0 mi South 10.4 mph 17.3 mph N/A   Scattered Clouds
3:56 PM 78.3 °F - 56.8 °F 48% 30.00 in 10.0 mi South 9.2 mph - N/A   Scattered Clouds
4:15 PM 79.2 °F - 57.9 °F 48% 29.99 in 10.0 mi South 9.2 mph - N/A   Scattered Clouds
4:35 PM 80.1 °F 80.5 °F 57.7 °F 46% 29.99 in 10.0 mi South 8.1 mph - N/A   Scattered Clouds
4:56 PM 80.6 °F 80.9 °F 58.3 °F 46% 29.98 in 10.0 mi SSE 11.5 mph - N/A   Scattered Clouds
5:15 PM 80.6 °F 80.8 °F 57.6 °F 45% 29.98 in 10.0 mi SSE 8.1 mph - N/A   Scattered Clouds
5:35 PM 80.1 °F 80.4 °F 57.2 °F 45% 29.98 in 10.0 mi SSE 10.4 mph - N/A   Clear
5:56 PM 80.1 °F 80.6 °F 57.9 °F 47% 29.98 in 10.0 mi SSE 6.9 mph - N/A   Clear
6:15 PM 79.7 °F - 58.1 °F 47% 29.98 in 10.0 mi SSE 6.9 mph - N/A   Clear
6:35 PM 79.9 °F - 58.6 °F 48% 29.98 in 10.0 mi South 8.1 mph - N/A   Clear
6:56 PM 79.3 °F - 58.6 °F 49% 29.98 in 10.0 mi SSE 8.1 mph - N/A   Scattered Clouds
7:15 PM 79.0 °F - 59.2 °F 51% 29.98 in 10.0 mi SSE 8.1 mph - N/A   Scattered Clouds
7:35 PM 77.4 °F - 59.0 °F 53% 29.98 in 10.0 mi SE 6.9 mph - N/A   Scattered Clouds
7:56 PM 77.0 °F - 59.4 °F 54% 29.97 in 10.0 mi SE 5.8 mph - N/A   Clear
8:15 PM 76.1 °F - 59.7 °F 57% 29.96 in 10.0 mi SE 6.9 mph - N/A   Scattered Clouds
8:35 PM 74.7 °F - 59.9 °F 60% 29.97 in 10.0 mi SE 4.6 mph - N/A   Clear
8:56 PM 72.9 °F - 60.1 °F 64% 29.96 in 10.0 mi ESE 4.6 mph - N/A   Scattered Clouds
9:15 PM 72.0 °F - 59.9 °F 66% 29.97 in 10.0 mi SE 5.8 mph - N/A   Scattered Clouds
9:35 PM 72.5 °F - 59.9 °F 64% 29.98 in 10.0 mi SE 5.8 mph - N/A   Mostly Cloudy
9:56 PM 71.8 °F - 59.9 °F 66% 29.98 in 10.0 mi SE 5.8 mph - N/A   Mostly Cloudy
10:15 PM 70.7 °F - 59.9 °F 69% 29.99 in 10.0 mi SE 4.6 mph - N/A   Scattered Clouds
10:35 PM 70.2 °F - 59.5 °F 69% 29.99 in 10.0 mi SE 4.6 mph - N/A   Clear
10:56 PM 69.8 °F - 59.4 °F 69% 29.99 in 10.0 mi SSE 5.8 mph - N/A   Clear
11:15 PM 69.3 °F - 59.2 °F 70% 29.99 in 10.0 mi SSE 5.8 mph - N/A   Scattered Clouds
11:35 PM 69.3 °F - 59.0 °F 70% 29.99 in 10.0 mi SSE 6.9 mph - N/A   Scattered Clouds
11:56 PM 68.9 °F - 59.0 °F 71% 30.00 in 10.0 mi SSE 5.8 mph - N/A   Clear